User: anonymous   Login
Location: El Carrer d�Abaix
(41.5797°N, 2.1791°E)
Time: 12:15:14
(UTC+00:00)
Language:

STARLINK-1378 - Orbit

View from above orbital plane
View from above orbital plane
View from above satellite
View from above satellite

Ground track
Ground track

The orbit data is extracted from the following two-line orbital elements,

1 45548U 20025T   20227.25001157 -.00024406  00000-0 -16615-2 0  9998
2 45548  52.9985 235.0859 0001387  96.0113 174.8452 15.05582326 18026
Epoch (UTC): 14 August 2020 06:00:01
Eccentricity: 0.0001387
inclination: 52.9985°
perigee height: 549 km
apogee height: 550 km
right ascension of ascending node: 235.0859°
argument of perigee: 96.0113°
revolutions per day: 15.05582326
mean anomaly at epoch: 174.8452°
orbit number at epoch: 1802

The dashed part of the orbit path shows where the satellite is in the earth's shadow,  

DLR